7 * 24
多渠道服务支持
STARLINK-34982是美国SpaceX公司“星链”星座的一颗卫星,于2025年8月发射入轨。星链作为低轨通信星座,旨在为全球提供高速宽带互联网服务,该卫星采用平板设计,搭载Ku/Ka波段通信载荷与霍尔推进器,具备自主避撞能力,设计寿命约5-7年,退役后将主动离轨再入大气层烧毁。它也是星链万颗星座部署中的组成单元,进一步扩展了星链的全球覆盖与通信能力,同时其依托低轨星座特性,也兼具潜在军事应用价值。
美国
(US)
| 数据来源 | 国际轨道数据 |
| 星历时间: | 2026-06-13T10:39:33+0800 13小时前 查看轨道信息 |
| 半长轴: | 6927.63km |
| 偏心率: | 0.000307 |
| 轨道倾角: | 97.368° |
| 近地点辐角 | 134.028° |
| 升交点赤经 | 206.128° |
| 平近点角 | 226.121° |
| 近地点: | 547.366km |
| 远地点: | 551.62km |
| 周期: | 95.639分钟 |
| 每日圈数: | 15.056562 |